Wind_Speed
8 8 8 8 8 8 9 9 9 9 9 9 9 9 8 8 7 7 6 6 6 6 6 6 5 5 5 5 5 5 4 4 2 2 2 2 2 2 2 2 1 1 2
9 9 8 8 8 8 8 9 8 8 8 9 9 9 9 9 8 7 6 6 6 6 7 7 7 6 5 6 6 5 5 4 4 2 2 2 2 1 1 1 1 1 1
9 9 9 9 9 8 8 9 8 9 8 9 9 9 8 8 8 7 7 7 6 6 7 6 6 6 6 6 5 6 6 5 5 4 2 2 2 2 1 1 1 1 1
9 9 9 9 9 9 9 10 9 9 8 8 8 8 8 8 8 8 8 7 7 7 6 6 6 5 5 5 5 5 5 5 5 3 3 2 1 1 1 1 1 1 1
9 9 9 9 9 9 10 10 10 9 9 8 8 8 8 8 8 8 7 7 7 6 6 6 5 4 4 5 5 4 4 4 3 3 3 1 1 1 1 1 1 1 1
9 9 9 9 9 10 10 10 10 10 9 8 8 7 8 7 8 7 7 7 6 5 5 4 4 3 4 4 4 3 3 3 3 2 2 2 0 1 1 1 1 1 1
9 10 9 9 9 9 9 9 10 9 9 8 8 7 7 7 7 7 7 6 6 6 5 4 4 3 3 4 3 3 3 2 2 2 1 2 1 1 1 1 1 1 2
9 10 9 9 8 8 9 9 9 8 8 8 7 7 6 6 6 6 6 6 6 5 5 4 4 3 3 2 2 2 2 2 2 2 2 2 2 1 1 1 1 1 2
9 9 8 8 8 8 9 9 8 7 7 6 6 6 6 6 5 5 5 6 5 5 4 4 4 3 3 2 2 3 2 2 2 2 2 2 2 1 2 2 2 2 3
8 8 8 7 7 7 8 7 6 6 5 5 5 5 5 5 5 5 5 5 5 4 4 4 3 4 4 3 2 3 3 2 2 3 3 2 2 2 3 3 3 3 4
7 7 7 7 7 7 6 5 5 5 5 4 4 5 4 4 4 4 4 4 4 4 4 4 3 4 4 3 3 3 3 3 3 3 3 3 3 3 4 4 4 5 5
8 8 9 8 8 7 6 5 5 4 5 4 4 3 3 3 3 3 3 3 3 3 3 3 3 3 3 3 3 4 3 3 4 4 4 4 4 4 5 4 5 5 6
8 8 8 7 7 6 6 6 6 5 5 4 3 3 3 3 3 2 2 2 2 2 2 3 3 3 3 3 4 4 4 4 4 4 4 5 5 6 6 6 6 6 6
8 8 8 7 7 6 6 6 5 5 5 4 3 3 3 2 2 2 2 2 2 2 2 3 4 4 4 5 5 5 5 5 5 5 5 6 6 6 6 6 6 6 6
8 8 8 7 7 6 5 4 4 4 4 3 3 2 2 2 2 2 1 2 2 3 3 4 5 5 5 7 6 6 7 7 6 6 7 7 7 7 7 7 7 7 7
8 7 7 7 6 5 4 4 3 3 2 2 1 1 1 2 3 3 2 2 3 3 4 5 5 6 6 7 7 7 8 8 8 8 8 8 8 8 8 8 8 8 9
8 7 6 6 5 5 4 3 2 1 1 1 2 2 2 2 3 3 3 3 3 4 4 4 5 6 7 7 7 8 8 8 8 8 8 9 9 9 9 9 9 9 9
7 6 6 5 5 4 3 2 2 1 1 1 1 1 2 2 2 3 3 3 4 5 5 5 5 6 6 7 8 8 8 9 9 9 9 10 11 11 11 11 11 11 11
6 6 5 5 4 3 3 3 3 2 1 1 2 2 2 3 3 3 3 4 4 4 5 6 6 7 8 8 8 8 9 9 10 10 11 11 12 12 12 12 12 13 12
5 5 5 5 4 4 3 3 4 2 2 2 2 2 2 2 3 3 3 3 4 5 6 7 7 8 8 8 8 9 9 10 10 10 11 12 12 13 13 13 13 13 13
4 4 4 4 4 3 3 3 3 3 3 3 2 2 2 2 3 3 4 4 5 6 7 8 8 9 9 9 10 10 10 10 10 10 11 12 12 12 13 13 13 13 14
4 4 4 4 4 3 2 3 3 4 4 3 2 3 3 3 3 3 4 4 6 7 8 8 9 10 10 10 11 11 12 11 11 11 11 12 12 12 12 13 13 13 14
3 2 2 2 3 2 2 2 3 4 4 4 3 4 4 4 4 4 5 5 6 8 9 9 10 11 11 11 12 12 11 11 12 13 13 13 13 13 13 14 14 14 14
2 2 2 2 2 3 3 3 4 4 4 4 4 5 5 5 5 6 6 7 8 9 10 11 11 12 12 13 13 13 13 13 14 14 14 13 13 13 14 14 14 14 15
4 3 4 4 4 4 5 5 6 5 5 5 6 6 6 6 7 8 8 9 10 10 11 12 13 13 14 14 14 14 14 14 15 15 14 14 14 14 14 14 15 15 15
5 4 4 4 4 5 6 7 7 7 7 7 7 7 7 8 9 10 11 11 12 12 13 14 14 15 15 16 16 16 16 16 16 16 15 15 15 15 15 15 16 16 16
Wind_Direction
75 81 86 91 92 95 99 101 104 102 97 95 95 89 87 87 86 79 80 95 103 96 89 82 73 68 70 66 68 64 57 59 62 57 103 114 114 113 123 134 135 128 115
76 80 84 92 93 97 99 99 100 102 101 100 98 93 91 87 83 79 78 88 95 92 86 82 75 68 70 66 64 58 48 55 52 54 86 93 97 115 123 147 148 138 147
75 77 85 89 95 100 103 99 98 102 105 106 102 93 91 85 75 77 81 87 95 98 93 86 74 69 67 62 58 51 46 49 48 60 52 63 94 115 126 130 122 135 198
76 80 88 90 95 102 103 100 99 101 104 106 103 96 93 84 75 78 80 84 92 93 90 87 78 71 59 52 51 48 42 47 52 54 42 52 87 130 141 139 136 188 242
79 82 86 91 96 103 105 101 97 98 103 104 99 95 92 84 79 80 77 79 90 94 91 86 78 66 52 46 49 46 49 48 48 46 40 41 109 140 158 191 199 214 246
82 84 88 89 97 102 104 102 99 102 104 103 99 95 91 87 81 75 74 76 88 97 93 92 81 66 54 47 48 41 37 35 33 30 28 22 72 164 208 233 228 223 242
81 86 90 92 96 100 100 101 101 102 100 100 96 93 90 84 77 72 72 75 77 79 83 80 65 50 47 54 48 27 24 36 33 26 22 12 345 303 269 247 235 245 250
84 88 93 95 97 101 101 103 102 103 102 100 93 88 87 85 74 71 71 71 69 69 66 60 47 36 44 44 32 16 45 48 30 26 16 14 356 310 281 255 263 282 285
86 91 95 97 99 106 106 105 106 101 100 100 96 93 90 86 76 68 67 64 61 56 49 47 45 34 22 23 24 24 29 17 13 9 9 6 352 311 294 292 284 280 279
87 93 95 101 101 104 107 108 106 101 102 104 103 99 92 85 78 71 67 65 57 49 42 40 40 23 17 18 34 34 21 4 358 357 358 340 323 311 304 295 291 283 283
82 87 94 103 97 101 108 109 106 103 103 104 107 103 96 88 83 73 71 65 55 45 42 34 27 21 19 15 17 16 3 353 347 352 353 340 327 314 305 299 298 292 285
78 82 86 97 99 104 105 103 99 95 98 102 104 105 93 85 85 73 68 59 51 41 35 26 19 19 4 352 352 355 346 337 333 334 336 330 325 319 310 300 301 299 293
79 86 87 94 97 95 96 99 95 92 95 103 99 88 78 74 76 77 60 48 39 23 12 7 359 348 332 339 337 338 335 323 320 321 322 318 316 315 311 305 299 298 296
80 85 91 91 95 94 92 96 93 93 93 95 94 75 62 53 51 70 58 26 11 354 345 342 335 327 323 336 331 329 329 323 314 310 307 306 307 308 306 301 297 300 295
73 82 89 85 90 94 94 93 91 94 97 81 74 63 34 22 15 14 1 351 343 340 322 321 323 310 311 321 316 316 318 322 315 313 308 303 303 303 303 301 299 296 294
74 79 84 87 88 87 93 93 82 88 86 60 41 27 22 14 360 4 350 330 328 330 324 327 328 318 313 317 314 311 312 312 310 307 308 304 302 301 300 300 300 298 293
76 77 78 88 88 81 83 81 59 68 75 63 35 37 45 14 6 354 338 319 322 329 329 331 326 318 314 315 314 312 307 306 306 302 300 301 299 296 294 295 296 296 295
74 73 74 80 86 78 69 64 41 31 56 36 9 22 11 352 348 333 315 315 319 325 329 328 328 328 324 321 318 319 314 308 302 298 295 295 295 292 289 290 290 292 293
73 75 74 73 72 61 51 49 48 41 46 25 5 3 0 345 338 326 310 312 317 328 331 327 324 326 327 324 321 320 316 311 305 301 298 297 295 295 290 288 287 287 289
68 71 70 69 65 54 46 47 42 43 35 7 2 357 352 344 338 325 323 325 325 328 328 326 326 327 327 326 322 318 317 313 309 308 306 301 298 295 292 292 289 286 287
67 68 65 62 59 46 31 26 26 17 12 6 3 11 4 353 343 329 327 333 333 331 330 328 326 326 324 320 317 316 316 314 311 308 308 307 303 299 295 296 296 293 291
69 74 66 60 52 38 23 6 359 351 351 346 339 338 331 332 334 323 320 321 327 326 324 323 322 322 321 317 316 317 316 314 314 311 309 309 307 305 303 300 298 297 296
46 48 48 35 28 11 349 341 341 337 332 327 319 315 313 310 317 315 317 317 319 320 319 318 320 321 321 319 318 316 314 312 314 311 307 304 305 304 303 301 299 299 298
347 339 322 332 333 323 323 316 316 321 319 313 310 310 308 305 309 308 308 310 313 315 317 316 315 314 316 317 316 315 313 310 311 309 305 300 299 301 301 300 300 299 298
315 303 296 299 301 302 303 302 301 305 297 296 299 300 301 303 306 306 307 308 308 310 313 313 311 311 311 314 314 313 311 310 310 308 305 300 298 297 298 299 299 298 297
311 297 286 287 292 298 301 303 302 301 296 290 292 297 297 298 303 304 304 307 310 310 310 310 309 311 311 312 311 309 307 306 307 306 302 299 296 294 295 297 297 297 298
Height
5877 5877 5877 5877 5877 5878 5878 5879 5880 5880 5881 5881 5882 5882 5883 5883 5884 5884 5885 5885 5886 5886 5886 5887 5887 5887 5888 5888 5888 5888 5887 5887 5887 5887 5888 5888 5889 5889 5889 5889 5890 5890 5890
5878 5878 5878 5878 5878 5879 5880 5880 5881 5881 5882 5882 5883 5884 5884 5885 5885 5885 5886 5886 5887 5887 5888 5888 5888 5888 5888 5889 5889 5888 5888 5888 5888 5888 5888 5889 5889 5889 5889 5890 5890 5890 5890
5880 5879 5879 5879 5879 5880 5881 5881 5882 5882 5883 5884 5885 5885 5885 5886 5886 5887 5887 5887 5888 5888 5889 5889 5890 5889 5890 5890 5890 5890 5889 5889 5889 5889 5889 5889 5889 5889 5890 5890 5890 5890 5890
5881 5881 5881 5881 5881 5881 5882 5882 5883 5883 5884 5885 5886 5886 5887 5887 5888 5888 5888 5888 5889 5889 5890 5890 5891 5891 5891 5891 5891 5890 5890 5890 5889 5889 5889 5889 5890 5889 5889 5889 5889 5889 5890
5883 5882 5882 5882 5882 5882 5883 5884 5884 5885 5885 5886 5887 5888 5888 5889 5889 5889 5889 5889 5890 5890 5891 5891 5891 5892 5892 5892 5891 5891 5891 5891 5890 5890 5890 5890 5890 5889 5889 5889 5889 5889 5889
5884 5884 5883 5883 5883 5884 5884 5884 5885 5886 5887 5887 5888 5889 5889 5890 5890 5890 5890 5891 5891 5891 5891 5892 5892 5892 5892 5892 5892 5892 5891 5891 5891 5890 5890 5890 5890 5889 5889 5889 5889 5889 5889
5885 5885 5885 5884 5885 5885 5885 5886 5887 5887 5888 5889 5889 5890 5891 5891 5891 5891 5891 5892 5892 5892 5892 5893 5892 5892 5892 5892 5892 5892 5892 5891 5891 5890 5890 5890 5890 5889 5889 5889 5889 5889 5889
5886 5886 5886 5886 5886 5886 5886 5887 5888 5889 5889 5890 5890 5891 5892 5892 5892 5892 5892 5893 5893 5893 5893 5893 5893 5893 5893 5893 5892 5892 5892 5891 5891 5891 5890 5890 5889 5889 5889 5889 5889 5889 5888
5888 5888 5888 5887 5888 5888 5888 5889 5889 5890 5890 5891 5891 5892 5893 5893 5893 5893 5893 5894 5893 5894 5894 5894 5894 5894 5894 5893 5892 5892 5892 5891 5891 5891 5890 5890 5889 5889 5889 5889 5889 5888 5888
5889 5889 5889 5889 5889 5889 5889 5890 5890 5891 5891 5892 5892 5893 5893 5894 5894 5894 5894 5894 5895 5895 5895 5894 5894 5894 5894 5893 5893 5893 5892 5891 5891 5891 5890 5890 5889 5889 5889 5889 5888 5888 5888
5891 5891 5890 5890 5890 5890 5891 5891 5891 5892 5892 5893 5893 5894 5894 5894 5895 5895 5895 5895 5895 5895 5895 5895 5895 5895 5894 5894 5893 5893 5892 5892 5891 5891 5890 5890 5889 5889 5889 5888 5888 5887 5887
5892 5892 5892 5892 5892 5892 5892 5892 5892 5893 5893 5893 5894 5894 5895 5895 5895 5896 5896 5896 5896 5896 5896 5895 5895 5895 5894 5894 5893 5893 5892 5891 5891 5891 5890 5890 5889 5888 5888 5887 5887 5886 5886
5894 5893 5893 5893 5893 5893 5893 5893 5893 5894 5894 5894 5895 5895 5895 5896 5896 5896 5896 5896 5896 5896 5896 5896 5895 5895 5894 5894 5893 5893 5892 5891 5891 5890 5890 5889 5888 5888 5887 5886 5886 5885 5884
5895 5894 5894 5894 5894 5894 5894 5894 5894 5895 5895 5895 5895 5896 5896 5896 5896 5896 5896 5896 5896 5896 5896 5896 5895 5895 5894 5893 5893 5892 5891 5891 5890 5890 5889 5889 5888 5887 5886 5886 5885 5884 5883
5896 5896 5896 5896 5895 5895 5895 5895 5896 5896 5896 5896 5896 5896 5896 5896 5896 5896 5896 5896 5896 5896 5896 5895 5895 5894 5893 5893 5892 5891 5891 5890 5890 5889 5888 5888 5887 5886 5885 5884 5883 5883 5882
5897 5897 5897 5897 5897 5896 5896 5896 5897 5897 5897 5897 5897 5897 5896 5896 5896 5896 5896 5896 5896 5895 5895 5894 5894 5893 5893 5892 5891 5890 5890 5889 5888 5888 5887 5886 5885 5885 5884 5883 5882 5881 5880
5898 5898 5898 5898 5897 5897 5897 5897 5897 5897 5897 5897 5897 5897 5897 5896 5896 5896 5896 5895 5895 5895 5894 5894 5893 5892 5892 5891 5890 5889 5888 5888 5887 5886 5885 5884 5884 5883 5882 5881 5880 5879 5878
5900 5899 5899 5899 5898 5898 5898 5898 5898 5897 5897 5897 5897 5897 5897 5896 5896 5896 5895 5895 5894 5894 5894 5893 5892 5891 5890 5889 5888 5888 5887 5886 5885 5884 5883 5882 5881 5880 5879 5879 5878 5877 5876
5900 5900 5900 5899 5899 5899 5899 5898 5898 5898 5898 5898 5897 5897 5896 5896 5896 5895 5895 5894 5894 5893 5893 5892 5891 5890 5889 5888 5887 5886 5885 5884 5883 5882 5881 5880 5879 5877 5877 5876 5875 5874 5873
5901 5901 5901 5900 5900 5900 5899 5899 5898 5898 5898 5897 5897 5897 5896 5896 5895 5895 5894 5894 5893 5893 5892 5891 5890 5889 5888 5887 5886 5885 5883 5882 5881 5880 5878 5877 5876 5875 5874 5873 5872 5871 5870
5902 5902 5901 5901 5900 5900 5899 5899 5899 5898 5898 5897 5897 5897 5896 5896 5895 5894 5894 5893 5893 5892 5891 5890 5889 5888 5887 5885 5884 5883 5881 5880 5879 5877 5876 5874 5873 5872 5871 5870 5869 5868 5867
5903 5902 5901 5901 5901 5900 5900 5899 5899 5898 5898 5897 5897 5896 5896 5895 5894 5894 5893 5893 5892 5891 5890 5889 5888 5886 5885 5884 5882 5881 5879 5878 5876 5875 5874 5872 5871 5869 5868 5867 5866 5865 5864
5903 5902 5902 5901 5901 5900 5900 5899 5898 5898 5897 5897 5896 5896 5895 5894 5894 5893 5892 5891 5891 5890 5889 5888 5886 5885 5883 5881 5880 5879 5877 5876 5874 5873 5871 5869 5868 5866 5865 5864 5863 5862 5861
5903 5902 5901 5901 5900 5900 5899 5899 5898 5897 5896 5896 5895 5895 5894 5894 5893 5892 5891 5890 5889 5888 5887 5885 5884 5882 5881 5879 5877 5876 5874 5873 5871 5870 5868 5866 5865 5863 5862 5861 5860 5859 5857
5902 5901 5901 5900 5899 5899 5898 5898 5897 5896 5895 5894 5894 5893 5893 5892 5891 5890 5889 5888 5887 5886 5884 5883 5882 5880 5878 5877 5875 5873 5871 5870 5868 5866 5865 5864 5862 5860 5859 5858 5856 5855 5854
5901 5900 5899 5899 5898 5897 5897 5896 5895 5894 5894 5893 5892 5892 5891 5890 5889 5888 5887 5886 5885 5883 5882 5880 5879 5877 5875 5874 5872 5870 5868 5867 5865 5863 5862 5860 5859 5857 5855 5854 5853 5851 5850